Date String (YYYY-MM-DD hh:mm:ss) UTC,Instrument flags,Ambient pressure (hPa),Sample flow (lpm),Bypass flow (lpm),Sample temperature (°C),Ambient temperature (°C),ASC tube jacket temperature (°C),LED temperature (°C),Box temperature (°C),Sample RH (%),Span deviation,Mass concentration (μg/m³),Mass concentration (μg/m³),Mass concentration (μg/m³)
DateTimeUTC,F1_M11,P_M11,Q1_M11,Q2_M11,T1_M11,T2_M11,T3_M11,T4_M11,T5_M11,U1_M11,ZSPAN_M11,X0_M11,X2_M11,X1_M11
2022-12-15 17:00:00,,0821.1,4.96,0.00,21.8,20.3,00.0,30.8,23.5,08.2,0000.0,0011.12,0005.22,0004.64
2022-12-15 17:01:00,,0821.1,5.06,0.00,21.8,20.0,00.0,30.8,23.4,08.3,0000.0,0011.70,0005.20,0004.64
2022-12-15 17:02:00,,0821.0,4.96,0.00,21.8,19.9,00.0,30.8,23.4,08.4,0000.0,0011.54,0005.15,0004.63
2022-12-15 17:03:00,,0821.0,5.05,0.00,21.7,19.9,00.0,30.7,23.3,08.4,0000.0,0011.51,0005.13,0004.64
2022-12-15 17:04:00,,0821.0,4.98,0.00,21.7,19.9,00.0,30.7,23.3,08.5,0000.0,0011.60,0005.15,0004.64
2022-12-15 17:05:00,,0821.0,4.98,0.00,21.7,19.8,00.0,30.7,23.3,08.5,0000.0,0011.41,0005.17,0004.65
2022-12-15 17:06:00,,0821.0,5.01,0.00,21.6,19.8,00.0,30.7,23.3,08.6,0000.0,0011.52,0005.19,0004.65
2022-12-15 17:07:00,,0821.0,5.03,0.00,21.6,19.9,00.0,30.6,23.3,08.6,0000.0,0011.53,0005.20,0004.65
2022-12-15 17:08:00,,0821.1,4.95,0.00,21.6,19.9,00.0,30.6,23.3,08.5,0000.0,0012.17,0005.18,0004.64
2022-12-15 17:09:00,,0821.1,5.05,0.00,21.6,20.1,00.0,30.6,23.3,08.5,0000.0,0012.74,0005.19,0004.65
2022-12-15 17:10:00,,0821.0,4.97,0.00,21.7,21.4,00.0,30.5,23.6,08.5,0000.0,0012.89,0005.23,0004.66
2022-12-15 17:11:00,,0821.0,5.03,0.00,21.8,22.3,00.0,30.6,23.9,08.4,0000.0,0012.21,0005.23,0004.67
2022-12-15 17:12:00,,0821.1,4.97,0.00,21.9,22.1,00.0,30.6,23.9,08.4,0000.0,0012.06,0005.23,0004.67
2022-12-15 17:13:00,,0821.0,5.01,0.00,21.9,21.7,00.0,30.7,23.9,08.3,0000.0,0012.23,0005.28,0004.68
2022-12-15 17:14:00,,0821.1,5.00,0.00,21.9,21.4,00.0,30.7,23.8,08.4,0000.0,0012.21,0005.29,0004.69
2022-12-15 17:15:00,,0821.0,5.00,0.00,22.0,21.2,00.0,30.7,23.8,08.5,0000.0,0012.11,0005.25,0004.70
2022-12-15 17:16:00,,0821.0,4.99,0.00,22.0,21.0,00.0,30.7,23.8,08.4,0000.0,0012.06,0005.26,0004.69
2022-12-15 17:17:00,,0821.0,5.00,0.00,22.0,20.9,00.0,30.7,23.8,08.5,0000.0,0011.97,0005.28,0004.69
2022-12-15 17:18:00,,0820.9,4.99,0.00,22.0,20.8,00.0,30.8,23.8,08.5,0000.0,0011.99,0005.28,0004.69
2022-12-15 17:19:00,,0820.9,4.99,0.00,22.0,20.7,00.0,30.8,23.7,08.4,0000.0,0011.62,0005.33,0004.70
2022-12-15 17:20:00,,0820.9,5.04,0.00,21.9,20.5,00.0,30.8,23.6,08.3,0000.0,0011.85,0005.37,0004.70
2022-12-15 17:21:00,,0820.9,4.95,0.00,21.9,20.4,00.0,30.8,23.6,08.4,0000.0,0011.58,0005.36,0004.69
2022-12-15 17:22:00,,0820.9,5.05,0.00,21.9,20.3,00.0,30.8,23.5,08.4,0000.0,0010.73,0005.38,0004.69
2022-12-15 17:23:00,,0820.9,4.95,0.00,21.9,20.2,00.0,30.7,23.5,08.4,0000.0,0010.46,0005.41,0004.69
2022-12-15 17:24:00,,0820.8,5.05,0.00,21.8,20.2,00.0,30.7,23.5,08.2,0000.0,0010.55,0005.40,0004.68
2022-12-15 17:25:00,,0820.8,4.96,0.00,21.8,20.4,00.0,30.7,23.6,08.1,0000.0,0010.75,0005.41,0004.66
2022-12-15 17:26:00,,0820.9,5.01,0.00,21.9,21.5,00.0,30.7,23.8,08.1,0000.0,0011.31,0005.42,0004.64
2022-12-15 17:27:00,,0820.9,5.03,0.00,22.0,22.5,00.0,30.7,24.1,08.2,0000.0,0011.37,0005.40,0004.64
2022-12-15 17:28:00,,0820.8,4.98,0.00,22.1,22.3,00.0,30.8,24.1,08.2,0000.0,0011.55,0005.38,0004.65
2022-12-15 17:29:00,,0820.8,4.99,0.00,22.1,21.8,00.0,30.8,24.1,08.1,0000.0,0013.21,0005.41,0004.66
2022-12-15 17:30:00,,0820.7,5.04,0.00,22.1,21.5,00.0,30.8,23.9,08.1,0000.0,0013.66,0005.40,0004.66
2022-12-15 17:31:00,,0820.7,4.94,0.00,22.1,21.1,00.0,30.9,23.9,08.1,0000.0,0013.24,0005.40,0004.65
2022-12-15 17:32:00,,0820.7,5.05,0.00,22.1,20.8,00.0,30.9,23.8,08.1,0000.0,0013.55,0005.43,0004.65
2022-12-15 17:33:00,,0820.6,4.96,0.00,22.0,20.6,00.0,30.9,23.7,08.1,0000.0,0013.72,0005.41,0004.66
2022-12-15 17:34:00,,0820.6,5.04,0.00,22.0,20.4,00.0,30.9,23.6,08.2,0000.0,0013.43,0005.42,0004.67
2022-12-15 17:35:00,,0820.6,4.95,0.00,21.9,20.3,00.0,30.9,23.6,08.0,0000.0,0013.38,0005.46,0004.71
2022-12-15 17:36:00,,0820.6,5.05,0.00,21.9,20.2,00.0,30.8,23.5,08.0,0000.0,0014.75,0005.54,0004.78
2022-12-15 17:37:00,,0820.6,4.98,0.00,21.9,20.1,00.0,30.8,23.5,08.1,0000.0,0014.42,0005.60,0004.84
2022-12-15 17:38:00,,0820.6,4.98,0.00,21.8,20.0,00.0,30.8,23.5,08.1,0000.0,0014.91,0005.58,0004.84
2022-12-15 17:39:00,,0820.6,5.00,0.00,21.8,20.0,00.0,30.8,23.4,08.1,0000.0,0014.78,0005.59,0004.82
2022-12-15 17:40:00,,0820.7,5.03,0.00,21.8,19.9,00.0,30.8,23.4,08.1,0000.0,0013.12,0005.55,0004.81
2022-12-15 17:41:00,,0820.6,4.98,0.00,21.7,19.9,00.0,30.8,23.3,08.2,0000.0,0012.65,0005.54,0004.81
2022-12-15 17:42:00,,0820.6,4.98,0.00,21.7,20.0,00.0,30.7,23.4,08.2,0000.0,0012.23,0005.52,0004.81
2022-12-15 17:43:00,,0820.6,5.03,0.00,21.8,21.2,00.0,30.7,23.6,07.9,0000.0,0011.95,0005.49,0004.79
2022-12-15 17:44:00,,0820.7,5.00,0.00,21.9,22.3,00.0,30.7,23.9,07.8,0000.0,0011.86,0005.48,0004.76
2022-12-15 17:45:00,,0820.6,5.01,0.00,22.0,22.2,00.0,30.7,24.0,07.8,0000.0,0011.86,0005.47,0004.75
2022-12-15 17:46:00,,0820.6,4.98,0.00,22.0,21.7,00.0,30.8,23.9,07.7,0000.0,0012.27,0005.46,0004.72
2022-12-15 17:47:00,,0820.6,5.00,0.00,22.0,21.3,00.0,30.8,23.8,07.7,0000.0,0011.13,0005.36,0004.65
2022-12-15 17:48:00,,0820.6,4.99,0.00,22.0,21.0,00.0,30.8,23.7,07.7,0000.0,0010.76,0005.32,0004.60
2022-12-15 17:49:00,,0820.6,5.04,0.00,22.0,20.8,00.0,30.8,23.7,07.9,0000.0,0010.43,0005.35,0004.58
2022-12-15 17:50:00,,0820.6,4.96,0.00,21.9,20.6,00.0,30.8,23.6,07.9,0000.0,0010.25,0005.34,0004.58
2022-12-15 17:51:00,,0820.6,5.04,0.00,21.9,20.5,00.0,30.8,23.6,07.9,0000.0,0010.16,0005.30,0004.57
2022-12-15 17:52:00,,0820.7,4.95,0.00,21.9,20.4,00.0,30.8,23.6,07.9,0000.0,0010.16,0005.30,0004.56
2022-12-15 17:53:00,,0820.6,5.05,0.00,21.9,20.4,00.0,30.8,23.6,08.0,0000.0,0010.59,0005.30,0004.55
2022-12-15 17:54:00,,0820.6,4.95,0.00,21.9,20.3,00.0,30.8,23.6,08.0,0000.0,0010.52,0005.29,0004.55
2022-12-15 17:55:00,,0820.6,5.05,0.00,21.8,20.3,00.0,30.8,23.5,07.9,0000.0,0010.95,0005.31,0004.55
2022-12-15 17:56:00,,0820.6,4.95,0.00,21.8,20.2,00.0,30.8,23.5,07.9,0000.0,0010.91,0005.30,0004.55
2022-12-15 17:57:00,,0820.5,5.05,0.00,21.8,20.2,00.0,30.7,23.4,07.8,0000.0,0010.59,0005.29,0004.53
2022-12-15 17:58:00,,0820.5,4.95,0.00,21.8,20.2,00.0,30.7,23.5,07.6,0000.0,0010.54,0005.28,0004.52
2022-12-15 17:59:00,,0820.5,5.06,0.00,21.8,20.8,00.0,30.7,23.6,07.7,0000.0,0010.39,0005.21,0004.50
